DA3MD WSSS-WMBT

Flight info

Callsign DA3MD
Flight time 0h 28m
Altitude 17000
Route VMR9B VMR
Aircraft CL60/M-SBDE1E2E3FGHIJ1J4J5J7M3RWXYZ/LB1V1D1

Departure

Time 2026-05-08 08:29
Airport Singapore Changi Airport (WSSS)

Arrival

Time 2026-05-08 08:58
Airport Tioman Airport (WMBT)
Time Latitude Longitude Altitude Speed Heading
2026-05-08 08:07 1.34147 103.97617 27 ft 0 kts 292°
2026-05-08 08:17 1.34145 103.97623 27 ft 2 kts 292°
2026-05-08 08:17 1.34139 103.97636 27 ft 2 kts 292°
2026-05-08 08:18 1.34133 103.97650 27 ft 2 kts 292°
2026-05-08 08:18 1.34127 103.97663 27 ft 2 kts 313°
2026-05-08 08:18 1.34113 103.97669 27 ft 2 kts
2026-05-08 08:18 1.34105 103.97667 27 ft 0 kts 24°
2026-05-08 08:19 1.34101 103.97665 27 ft 0 kts 24°
2026-05-08 08:19 1.34100 103.97665 27 ft 0 kts 24°
2026-05-08 08:20 1.34101 103.97665 27 ft 0 kts 24°
2026-05-08 08:20 1.34102 103.97666 27 ft 0 kts 24°
2026-05-08 08:20 1.34110 103.97669 27 ft 3 kts 24°
2026-05-08 08:21 1.34136 103.97681 27 ft 0 kts 23°
2026-05-08 08:21 1.34158 103.97690 27 ft 5 kts 21°
2026-05-08 08:21 1.34162 103.97691 27 ft 0 kts 21°
2026-05-08 08:22 1.34201 103.97707 27 ft 7 kts 22°
2026-05-08 08:22 1.34265 103.97734 27 ft 12 kts 24°
2026-05-08 08:22 1.34354 103.97772 27 ft 13 kts 23°
2026-05-08 08:22 1.34439 103.97807 27 ft 14 kts 22°
2026-05-08 08:23 1.34531 103.97846 27 ft 14 kts 24°
2026-05-08 08:23 1.34605 103.97878 27 ft 12 kts 24°
2026-05-08 08:23 1.34659 103.97935 27 ft 11 kts 40°
2026-05-08 08:23 1.34697 103.98010 27 ft 15 kts 112°
2026-05-08 08:24 1.34661 103.98096 27 ft 15 kts 109°
2026-05-08 08:24 1.34629 103.98173 38 ft 12 kts 115°
2026-05-08 08:24 1.34588 103.98268 44 ft 20 kts 114°
2026-05-08 08:24 1.34529 103.98405 47 ft 15 kts 114°
2026-05-08 08:25 1.34475 103.98525 39 ft 23 kts 113°
2026-05-08 08:25 1.34432 103.98631 27 ft 14 kts 110°
2026-05-08 08:25 1.34391 103.98726 27 ft 14 kts 114°
2026-05-08 08:25 1.34356 103.98809 27 ft 14 kts 113°
2026-05-08 08:26 1.34333 103.98898 27 ft 10 kts 63°
2026-05-08 08:26 1.34401 103.98946 27 ft 14 kts 24°
2026-05-08 08:26 1.34500 103.98989 27 ft 18 kts 23°
2026-05-08 08:26 1.34629 103.99043 27 ft 19 kts 23°
2026-05-08 08:27 1.34772 103.99105 27 ft 23 kts 24°
2026-05-08 08:27 1.34919 103.99167 27 ft 24 kts 22°
2026-05-08 08:27 1.35074 103.99235 27 ft 27 kts 25°
2026-05-08 08:27 1.35214 103.99293 27 ft 18 kts 22°
2026-05-08 08:28 1.35303 103.99332 27 ft 8 kts 34°
2026-05-08 08:28 1.35317 103.99399 27 ft 16 kts 116°
2026-05-08 08:28 1.35247 103.99429 27 ft 14 kts 166°
2026-05-08 08:28 1.35072 103.99428 27 ft 59 kts 203°
2026-05-08 08:29 1.34337 103.99120 28 ft 163 kts 201°
2026-05-08 08:29 1.33243 103.98636 858 ft 187 kts 203°
2026-05-08 08:29 1.32086 103.98130 2148 ft 197 kts 203°
2026-05-08 08:29 1.30809 103.97578 3244 ft 220 kts 202°
2026-05-08 08:30 1.29404 103.96982 3982 ft 256 kts 202°
2026-05-08 08:30 1.27810 103.96312 5156 ft 272 kts 202°
2026-05-08 08:30 1.24290 103.94854 7819 ft 289 kts 202°
2026-05-08 08:31 1.22523 103.94132 9021 ft 297 kts 202°
2026-05-08 08:31 1.20632 103.93366 10214 ft 305 kts 201°
2026-05-08 08:31 1.18712 103.92648 11421 ft 308 kts 193°
2026-05-08 08:31 1.16589 103.92593 12631 ft 308 kts 166°
2026-05-08 08:32 1.14801 103.93359 13664 ft 307 kts 143°
2026-05-08 08:32 1.13363 103.94797 14435 ft 318 kts 122°
2026-05-08 08:32 1.12574 103.96689 14926 ft 336 kts 98°
2026-05-08 08:32 1.12756 103.99034 15669 ft 348 kts 71°
2026-05-08 08:33 1.13931 104.01102 16352 ft 361 kts 54°
2026-05-08 08:33 1.15485 104.03100 16667 ft 384 kts 52°
2026-05-08 08:33 1.17236 104.05304 16780 ft 405 kts 52°
2026-05-08 08:33 1.19009 104.07475 16796 ft 411 kts 48°
2026-05-08 08:34 1.21020 104.09206 16799 ft 411 kts 35°
2026-05-08 08:34 1.23460 104.10445 16800 ft 410 kts 21°
2026-05-08 08:34 1.26283 104.11056 16802 ft 411 kts
2026-05-08 08:34 1.28985 104.10938 16805 ft 414 kts 352°
2026-05-08 08:35 1.31545 104.10163 16807 ft 417 kts 337°
2026-05-08 08:35 1.33853 104.08744 16806 ft 419 kts 323°
2026-05-08 08:35 1.36115 104.06860 16803 ft 420 kts 321°
2026-05-08 08:35 1.38293 104.05006 16807 ft 420 kts 321°
2026-05-08 08:36 1.40318 104.03313 16809 ft 420 kts 323°
2026-05-08 08:36 1.42725 104.01893 16816 ft 418 kts 338°
2026-05-08 08:36 1.45560 104.00910 16805 ft 418 kts 344°
2026-05-08 08:36 1.48374 104.00007 16807 ft 418 kts 343°
2026-05-08 08:37 1.51158 103.99107 16807 ft 417 kts 343°
2026-05-08 08:37 1.53989 103.98193 16810 ft 417 kts 343°
2026-05-08 08:37 1.56737 103.97304 16811 ft 417 kts 343°
2026-05-08 08:37 1.59530 103.96401 16813 ft 417 kts 343°
2026-05-08 08:38 1.62456 103.95454 16811 ft 417 kts 343°
2026-05-08 08:38 1.65264 103.94546 16813 ft 416 kts 343°
2026-05-08 08:38 1.68169 103.93606 16808 ft 416 kts 343°
2026-05-08 08:38 1.70982 103.92696 16805 ft 417 kts 343°
2026-05-08 08:39 1.73803 103.91783 16806 ft 416 kts 343°
2026-05-08 08:39 1.76609 103.91136 16809 ft 413 kts 355°
2026-05-08 08:39 1.79726 103.90913 16806 ft 413 kts 358°
2026-05-08 08:39 1.82691 103.90729 16808 ft 414 kts 358°
2026-05-08 08:40 1.85649 103.90544 16809 ft 414 kts 358°
2026-05-08 08:40 1.88654 103.90356 16808 ft 415 kts 358°
2026-05-08 08:40 1.91580 103.90173 16813 ft 415 kts 358°
2026-05-08 08:40 1.94548 103.89986 16808 ft 414 kts 358°
2026-05-08 08:41 1.97456 103.89803 16809 ft 414 kts 358°
2026-05-08 08:41 2.00420 103.89616 16810 ft 414 kts 358°
2026-05-08 08:41 2.03339 103.89431 16812 ft 413 kts 358°
2026-05-08 08:41 2.06263 103.89246 16807 ft 413 kts 358°
2026-05-08 08:42 2.09084 103.89067 16809 ft 413 kts 358°
2026-05-08 08:42 2.12003 103.88882 16810 ft 413 kts 358°
2026-05-08 08:42 2.14998 103.88692 16806 ft 414 kts 358°
2026-05-08 08:42 2.17935 103.88506 16813 ft 414 kts 358°
2026-05-08 08:43 2.20919 103.88316 16819 ft 414 kts 358°
2026-05-08 08:43 2.23870 103.88129 16820 ft 410 kts 358°
2026-05-08 08:43 2.26702 103.87946 16810 ft 385 kts 358°
2026-05-08 08:43 2.29398 103.87772 16821 ft 371 kts 359°
2026-05-08 08:44 2.32039 103.87605 16828 ft 367 kts 359°
2026-05-08 08:44 2.34683 103.87437 16809 ft 366 kts 359°
2026-05-08 08:44 2.37307 103.87270 16497 ft 369 kts 358°
2026-05-08 08:44 2.39831 103.87305 16067 ft 360 kts
2026-05-08 08:45 2.42361 103.87669 15621 ft 357 kts 11°
2026-05-08 08:45 2.44847 103.88048 15134 ft 354 kts 10°
2026-05-08 08:45 2.47258 103.88414 14673 ft 350 kts 10°
2026-05-08 08:45 2.49677 103.88780 14193 ft 347 kts 10°
2026-05-08 08:46 2.52108 103.89147 13730 ft 340 kts 10°
2026-05-08 08:46 2.54515 103.89510 13254 ft 334 kts 10°
2026-05-08 08:46 2.56794 103.89854 12823 ft 327 kts 10°
2026-05-08 08:46 2.59067 103.90197 12378 ft 322 kts 10°
2026-05-08 08:47 2.61325 103.90537 11920 ft 315 kts 10°
2026-05-08 08:47 2.63542 103.90870 11485 ft 305 kts
2026-05-08 08:47 2.65632 103.91184 11093 ft 292 kts
2026-05-08 08:47 2.67626 103.91484 10714 ft 282 kts
2026-05-08 08:48 2.69611 103.91782 10331 ft 272 kts
2026-05-08 08:48 2.71493 103.92065 9972 ft 264 kts
2026-05-08 08:48 2.73323 103.92340 9641 ft 254 kts
2026-05-08 08:48 2.75017 103.92594 9537 ft 238 kts
2026-05-08 08:49 2.76709 103.92848 9131 ft 231 kts
2026-05-08 08:49 2.78300 103.93086 8853 ft 215 kts
2026-05-08 08:49 2.79752 103.93304 8567 ft 204 kts
2026-05-08 08:49 2.81171 103.93517 8300 ft 201 kts
2026-05-08 08:50 2.82656 103.93741 8019 ft 202 kts
2026-05-08 08:50 2.84061 103.93952 7749 ft 200 kts
2026-05-08 08:50 2.85480 103.94165 7475 ft 199 kts
2026-05-08 08:50 2.86873 103.94375 7208 ft 198 kts
2026-05-08 08:51 2.88281 103.94586 6935 ft 196 kts
2026-05-08 08:51 2.89615 103.94895 6660 ft 195 kts 24°
2026-05-08 08:51 2.90652 103.95751 6344 ft 195 kts 54°
2026-05-08 08:51 2.91079 103.97027 6048 ft 197 kts 84°
2026-05-08 08:52 2.91080 103.98452 5707 ft 197 kts 90°
2026-05-08 08:52 2.91048 103.99777 5465 ft 179 kts 89°
2026-05-08 08:52 2.91022 104.00972 5229 ft 165 kts 89°
2026-05-08 08:52 2.90998 104.02132 5037 ft 158 kts 90°
2026-05-08 08:53 2.90977 104.03181 4831 ft 147 kts 89°
2026-05-08 08:53 2.90957 104.04198 4620 ft 141 kts 89°
2026-05-08 08:53 2.90938 104.05191 4362 ft 142 kts 90°
2026-05-08 08:53 2.90918 104.06170 3967 ft 140 kts 90°
2026-05-08 08:54 2.90877 104.07142 3563 ft 136 kts 91°
2026-05-08 08:54 2.90840 104.08086 3172 ft 134 kts 91°
2026-05-08 08:54 2.90799 104.09010 2760 ft 135 kts 94°
2026-05-08 08:54 2.90556 104.09907 2447 ft 128 kts 112°
2026-05-08 08:55 2.90091 104.10718 2380 ft 131 kts 122°
2026-05-08 08:55 2.89548 104.11493 2396 ft 131 kts 127°
2026-05-08 08:55 2.88949 104.12198 2391 ft 134 kts 130°
2026-05-08 08:55 2.88311 104.12908 2249 ft 133 kts 131°
2026-05-08 08:56 2.87624 104.13598 2034 ft 134 kts 134°
2026-05-08 08:56 2.86948 104.14275 1751 ft 131 kts 132°
2026-05-08 08:56 2.86247 104.14886 1534 ft 132 kts 141°
2026-05-08 08:56 2.85432 104.15429 1263 ft 132 kts 146°
2026-05-08 08:57 2.84572 104.15905 983 ft 134 kts 151°
2026-05-08 08:57 2.83702 104.16293 658 ft 133 kts 158°
2026-05-08 08:57 2.82730 104.16443 228 ft 132 kts 197°
2026-05-08 08:57 2.81902 104.16029 32 ft 109 kts 198°
2026-05-08 08:58 2.81625 104.15904 31 ft 2 kts 207°
2026-05-08 08:58 2.81601 104.15890 33 ft 2 kts 221°
2026-05-08 08:58 2.81592 104.15885 33 ft 2 kts 164°
2026-05-08 08:58 2.81636 104.15913 31 ft 15 kts 21°
2026-05-08 08:59 2.81713 104.15947 29 ft 6 kts 18°
2026-05-08 08:59 2.81759 104.15913 28 ft 10 kts 306°
2026-05-08 08:59 2.81802 104.15890 27 ft 7 kts 49°
2026-05-08 08:59 2.81807 104.15897 27 ft 0 kts 63°